1483894801.04,28712,4.31,72586.5,-19.65,-52.57,-53.01,0,*67
1483894802.34,28713,4.31,72612.3,-19.65,-52.51,-52.93,0,*6A
1483894803.64,28714,4.38,72588.8,-19.65,-52.13,-52.29,0,*6A
1483894804.91,28715,4.31,72600.3,-19.63,-52.29,-52.73,0,*6B
1483894806.19,28716,4.31,72608.8,-19.65,-52.51,-52.79,0,*6B
1483894807.47,28717,4.31,72600.8,-19.63,-52.51,-52.73,0,*66
1483894808.74,28718,4.38,72586.8,-19.63,-52.51,-52.93,0,*67
1483894809.97,28719,4.31,72594.3,-19.63,-52.57,-52.79,0,*64
1483894811.24,28720,4.38,72596.3,-19.65,-52.79,-53.15,0,*6F
1483894812.51,28721,4.38,72594.3,-19.63,-52.93,-53.15,0,*6C
1483894813.79,28722,4.31,72574.8,-19.65,-52.79,-53.15,0,*6D
1483894815.07,28723,4.31,72586.3,-19.65,-52.93,-53.01,0,*6D
1483894816.31,28724,4.31,72606.5,-19.65,-52.79,-53.01,0,*6E
1483894817.62,28725,4.38,72592.5,-19.65,-52.73,-53.15,0,*60
1483894818.92,28726,4.31,72584.8,-19.65,-52.93,-53.15,0,*6D
1483894820.2,28727,4.38,72596.3,-19.65,-52.51,-52.79,0,*69
1483894821.45,28728,4.31,72594.3,-19.67,-52.35,-52.93,0,*62
1483894822.76,28729,4.31,72576.0,-19.65,-52.51,-52.93,0,*63
1483894824.03,28730,4.38,72590.3,-19.63,-52.73,-52.93,0,*6D
1483894825.32,28731,4.38,72590.3,-19.65,-52.57,-52.93,0,*6C
1483894826.62,28732,4.38,72580.0,-19.65,-52.73,-52.93,0,*69
1483894827.9,28733,4.38,72584.3,-19.63,-52.73,-52.93,0,*6E
1483894829.18,28734,4.38,72586.3,-19.65,-52.57,-52.93,0,*69
1483894830.49,28735,4.38,72594.8,-19.65,-52.73,-53.15,0,*61
1483894831.8,28736,4.31,72604.3,-19.65,-52.73,-52.93,0,*6D
1483894833.05,28737,4.38,72596.3,-19.63,-52.57,-52.93,0,*6C
1483894834.36,28738,4.38,72610.8,-19.65,-52.73,-52.93,0,*63
1483894835.66,28739,4.31,72602.8,-19.65,-52.93,-53.15,0,*63
1483894836.94,28740,4.38,72604.3,-19.65,-52.79,-53.15,0,*69
1483894838.18,28741,4.38,72606.8,-19.65,-52.79,-53.01,0,*6D
1483894839.46,28742,4.31,72606.5,-19.65,-53.01,-53.15,0,*65
1483894840.68,28743,4.38,72622.8,-19.67,-52.79,-53.01,0,*6D
1483894841.9,28744,4.38,72628.5,-19.67,-52.79,-53.01,0,*6A
1483894843.18,28745,4.31,72634.0,-19.67,-52.73,-52.93,0,*6B
1483894844.45,28746,4.38,72630.0,-19.67,-52.93,-53.15,0,*69
1483894845.75,28747,4.38,72632.5,-19.65,-52.93,-53.15,0,*6A
1483894847.06,28748,4.38,72634.8,-19.65,-52.93,-53.15,0,*65
1483894848.34,28749,4.31,72632.0,-19.63,-52.93,-53.23,0,*67
1483894849.55,28750,4.38,72632.5,-19.67,-52.79,-53.01,0,*6F
1483894850.8,28751,4.38,72640.5,-19.67,-52.93,-53.01,0,*6A
1483894852.03,28752,4.31,72638.8,-19.67,-52.57,-52.79,0,*6F
1483894853.28,28753,4.38,72640.3,-19.69,-52.65,-53.01,0,*6F
1483894854.53,28754,4.38,72634.5,-19.69,-52.65,-53.01,0,*68
1483894855.81,28755,4.38,72650.5,-19.67,-52.73,-52.93,0,*6A
1483894857.09,28756,4.31,72654.5,-19.65,-52.57,-52.93,0,*6D
1483894858.35,28757,4.31,72664.0,-19.67,-52.57,-52.93,0,*6E
1483894859.65,28758,4.31,72660.8,-19.65,-52.51,-52.93,0,*65
1483894860.87,28759,4.31,72644.0,-19.67,-52.79,-53.01,0,*66
1483894862.15,28760,4.31,72626.3,-19.69,-52.87,-53.23,0,*63
1483894863.39,28761,4.38,72624.8,-19.67,-52.79,-53.15,0,*68
1483894864.62,28762,4.31,72614.8,-19.67,-52.57,-53.01,0,*62
1483894865.85,28763,4.38,72622.0,-19.67,-52.57,-53.01,0,*63
1483894867.08,28764,4.38,72624.8,-19.67,-52.57,-52.79,0,*6A
1483894868.33,28765,4.38,72626.5,-19.67,-52.73,-53.01,0,*63
1483894869.61,28766,4.31,72606.8,-19.67,-52.73,-53.15,0,*65
1483894870.85,28767,4.38,72610.0,-19.69,-52.79,-53.09,0,*6D
1483894872.07,28768,4.38,72602.5,-19.67,-52.79,-53.01,0,*64
1483894873.32,28769,4.38,72624.5,-19.67,-52.73,-53.01,0,*6F
1483894874.58,28770,4.38,72610.3,-19.67,-52.57,-52.93,0,*6B
1483894875.86,28771,4.38,72608.0,-19.65,-52.57,-52.93,0,*68
1483894877.11,28772,4.31,72604.8,-19.67,-52.79,-53.15,0,*6A
1483894878.37,28773,4.38,72600.3,-19.67,-53.15,-53.45,0,*65
1483894879.65,28774,4.31,72606.8,-19.69,-53.01,-53.31,0,*6A
1483894880.9,28775,4.38,72610.3,-19.67,-53.01,-53.45,0,*66
1483894882.16,28776,4.38,72600.5,-19.67,-53.01,-53.23,0,*65
1483894883.43,28777,4.38,72610.3,-19.69,-53.09,-53.31,0,*61
1483894884.71,28778,4.38,72602.5,-19.69,-53.01,-53.31,0,*66
1483894885.98,28779,4.38,72604.3,-19.67,-52.73,-53.15,0,*6B
1483894887.23,28780,4.31,72618.0,-19.67,-52.79,-53.15,0,*67
1483894888.48,28781,4.31,72610.3,-19.67,-52.73,-53.01,0,*69
1483894889.76,28782,4.31,72580.5,-19.69,-52.87,-53.23,0,*6F
1483894891.0,28783,4.31,72586.0,-19.69,-52.87,-53.09,0,*66
1483894892.29,28784,4.31,72586.3,-19.69,-53.01,-53.23,0,*66
1483894893.56,28785,4.38,72584.8,-19.67,-52.73,-53.15,0,*68
1483894894.84,28786,4.31,72586.0,-19.69,-53.01,-53.23,0,*64
1483894896.1,28787,4.31,72588.3,-19.67,-53.01,-53.15,0,*6E
1483894897.4,28788,4.38,72600.8,-19.69,-53.23,-53.53,0,*6D
1483894898.67,28789,4.31,72594.0,-19.69,-53.01,-53.53,0,*6C
1483894899.93,28790,4.38,72594.8,-19.67,-53.01,-53.23,0,*6D
1483894901.21,28791,4.31,72596.3,-19.69,-53.01,-53.23,0,*62
1483894902.43,28792,4.38,72602.0,-19.67,-52.79,-53.09,0,*69
1483894903.67,28793,4.38,72610.5,-19.69,-52.79,-53.09,0,*66
1483894904.91,28794,4.31,72614.8,-19.69,-52.79,-53.09,0,*61
1483894906.18,28795,4.38,72606.3,-19.67,-52.93,-53.15,0,*67
1483894907.43,28796,4.31,72614.5,-19.69,-52.87,-53.09,0,*62
1483894908.7,28797,4.31,72610.5,-19.69,-53.09,-53.31,0,*6F
1483894909.98,28798,4.38,72608.8,-19.69,-52.87,-53.31,0,*67
1483894911.25,28799,4.31,72602.3,-19.69,-53.09,-53.31,0,*61
1483894912.53,28800,4.38,72610.8,-19.67,-52.93,-53.23,0,*61
1483894913.78,28801,4.31,72598.3,-19.69,-52.87,-53.09,0,*63
1483894915.06,28802,4.38,72576.8,-19.69,-53.01,-53.31,0,*64
1483894916.34,28803,4.38,72604.0,-19.69,-52.65,-53.23,0,*65
1483894917.59,28804,4.31,72602.0,-19.69,-52.65,-53.09,0,*6A
1483894918.84,28805,4.31,72608.0,-19.69,-52.65,-52.87,0,*6C
1483894920.1,28806,4.38,72606.8,-19.69,-52.57,-52.87,0,*6E
1483894921.37,28807,4.31,72614.5,-19.69,-52.43,-52.65,0,*66
1483894922.65,28808,4.31,72690.5,-19.69,-52.43,-52.79,0,*64
1483894923.9,28809,4.31,72642.3,-19.69,-52.65,-53.01,0,*6F
1483894925.15,28810,4.38,72632.8,-19.67,-52.73,-53.01,0,*6E
1483894926.38,28811,4.38,72630.5,-19.67,-52.57,-52.79,0,*67
1483894927.63,28812,4.31,72628.5,-19.69,-52.65,-52.87,0,*6A
1483894928.88,28813,4.31,72610.8,-19.67,-52.57,-52.93,0,*61
1483894930.14,28814,4.38,72604.3,-19.69,-52.57,-52.87,0,*6D
1483894931.39,28815,4.38,72608.0,-19.67,-52.51,-52.79,0,*65
1483894932.64,28816,4.38,72606.5,-19.67,-52.51,-52.79,0,*66
1483894933.89,28817,4.31,72598.3,-19.67,-52.57,-52.93,0,*65
1483894935.17,28818,4.38,72596.8,-19.67,-52.51,-52.73,0,*62
1483894936.42,28819,4.38,72592.3,-19.69,-52.65,-53.01,0,*6E
1483894937.68,28820,4.31,72600.8,-19.67,-53.01,-53.23,0,*69
1483894938.93,28821,4.31,72588.8,-19.67,-52.57,-52.93,0,*60
1483894940.21,28822,4.31,72586.3,-19.67,-52.73,-52.93,0,*65
1483894941.46,28823,4.31,72616.5,-19.67,-52.57,-52.93,0,*62
1483894942.69,28824,4.31,72620.0,-19.67,-52.57,-53.01,0,*6F
1483894943.94,28825,4.31,72610.5,-19.69,-52.65,-53.09,0,*69
1483894945.19,28826,4.31,72600.5,-19.67,-52.79,-53.15,0,*64
1483894946.44,28827,4.38,72608.3,-19.69,-52.65,-53.01,0,*63
1483894947.72,28828,4.38,72604.0,-19.67,-52.73,-52.93,0,*6F
1483894949.0,28829,4.38,72616.5,-19.69,-53.01,-53.23,0,*6E
1483894950.25,28830,4.31,72614.0,-19.67,-52.73,-53.01,0,*6C
1483894951.53,28831,4.31,72612.5,-19.69,-53.01,-53.23,0,*67
1483894952.8,28832,4.31,72604.5,-19.69,-53.09,-53.23,0,*6C
1483894954.08,28833,4.31,72610.0,-19.67,-52.93,-53.15,0,*64
1483894955.36,28834,4.31,72628.0,-19.69,-52.87,-53.23,0,*6D
1483894956.6,28835,4.38,72612.0,-19.69,-52.79,-53.09,0,*65
1483894957.88,28836,4.38,72626.8,-19.69,-52.87,-53.23,0,*6F
1483894959.13,28837,4.38,72638.5,-19.67,-53.01,-53.15,0,*6A
1483894960.37,28838,4.38,72624.0,-19.67,-52.79,-53.15,0,*6B
1483894961.65,28839,4.38,72618.3,-19.69,-53.01,-53.23,0,*6F
1483894962.9,28840,4.31,72610.8,-19.67,-53.09,-53.31,0,*64
1483894964.18,28841,4.31,72606.0,-19.69,-53.01,-53.23,0,*60
1483894965.43,28842,4.38,72598.3,-19.69,-53.01,-53.09,0,*6B
1483894966.68,28843,4.38,72604.0,-19.69,-53.01,-53.09,0,*6A
1483894967.96,28844,4.31,72592.5,-19.69,-53.01,-53.31,0,*66
1483894969.2,28845,4.38,72582.8,-19.69,-52.79,-53.09,0,*62
1483894970.42,28846,4.38,72598.0,-19.67,-52.79,-53.09,0,*6F
1483894971.66,28847,4.38,72632.3,-19.69,-52.79,-53.09,0,*60
1483894972.94,28848,4.31,72644.8,-19.69,-53.01,-53.31,0,*6A
1483894974.19,28849,4.38,72618.5,-19.69,-52.65,-53.01,0,*6B
1483894975.43,28850,4.31,72608.5,-19.69,-52.79,-53.01,0,*6E
1483894976.71,28851,4.31,72632.5,-19.69,-52.87,-53.23,0,*6E
1483894977.98,28852,4.31,72624.3,-19.69,-53.01,-53.31,0,*61
1483894979.26,28853,4.38,72624.8,-19.69,-53.09,-53.31,0,*68
1483894980.54,28854,4.31,72626.8,-19.69,-53.01,-53.31,0,*67
1483894981.81,28855,4.31,72624.0,-19.69,-53.09,-53.53,0,*6A
1483894983.08,28856,4.38,72630.3,-19.69,-53.09,-53.31,0,*6D
1483894984.38,28857,4.38,72632.5,-19.69,-53.23,-53.53,0,*60
1483894985.67,28858,4.31,72622.3,-19.71,-53.23,-53.31,0,*62
1483894986.94,28859,4.31,72624.8,-19.71,-53.23,-53.31,0,*63
1483894988.2,28860,4.38,72626.8,-19.73,-53.15,-53.39,0,*66
1483894989.45,28861,4.31,72622.3,-19.71,-53.09,-53.31,0,*60
1483894990.71,28862,4.38,72626.5,-19.71,-53.01,-53.23,0,*68
1483894991.97,28863,4.31,72622.3,-19.73,-53.09,-53.31,0,*60
1483894993.26,28864,4.31,72616.3,-19.73,-53.15,-53.31,0,*6A
1483894994.52,28865,4.38,72636.0,-19.73,-53.15,-53.39,0,*63
1483894995.79,28866,4.31,72648.0,-19.71,-53.31,-53.53,0,*68
1483894997.05,28867,4.31,72650.5,-19.73,-53.39,-53.61,0,*62
1483894998.3,28868,4.31,72642.8,-19.71,-52.87,-53.23,0,*6D
1483894999.57,28869,4.38,72634.3,-19.73,-52.87,-53.15,0,*6B
1483895000.83,28870,4.38,72628.5,-19.73,-53.09,-53.31,0,*62
1483895002.09,28871,4.31,72616.3,-19.73,-53.31,-53.69,0,*65
1483895003.33,28872,4.38,72628.3,-19.73,-53.09,-53.39,0,*68
1483895004.62,28873,4.31,72652.8,-19.73,-52.93,-53.15,0,*65
1483895005.84,28874,4.38,72660.8,-19.71,-53.09,-53.09,0,*6F
1483895007.13,28875,4.38,72674.8,-19.73,-52.93,-53.15,0,*63
1483895008.37,28876,4.38,72656.5,-19.73,-52.87,-53.09,0,*68
1483895009.63,28877,4.38,72640.5,-19.73,-52.73,-53.09,0,*62
1483895010.92,28878,4.38,72592.8,-19.77,-52.93,-53.15,0,*6A
1483895012.21,28879,4.38,72586.8,-19.73,-52.93,-53.15,0,*6F
1483895013.42,28880,4.31,72576.0,-19.71,-52.79,-53.09,0,*62
1483895014.65,28881,4.31,72574.0,-19.71,-52.87,-53.09,0,*62
1483895015.89,28882,4.31,72608.5,-19.73,-52.65,-52.87,0,*68
1483895017.15,28883,4.31,72592.3,-19.73,-52.51,-52.87,0,*6E
1483895018.45,28884,4.38,72580.8,-19.73,-52.43,-52.51,0,*61
1483895019.71,28885,4.38,72596.8,-19.71,-51.99,-52.21,0,*61
1483895020.99,28886,4.31,72606.3,-19.71,-52.13,-52.21,0,*63
1483895022.28,28887,4.31,72618.8,-19.73,-52.29,-52.43,0,*6D
1483895023.56,28888,4.31,72624.8,-19.73,-51.99,-52.13,0,*6F
1483895024.81,28889,4.31,72640.5,-19.71,-52.21,-52.57,0,*6C
1483895026.06,28890,4.31,72642.3,-19.71,-52.21,-52.57,0,*64
1483895027.28,28891,4.38,72646.8,-19.71,-52.35,-52.57,0,*60
1483895028.54,28892,4.31,72626.0,-19.71,-52.43,-52.57,0,*62
1483895029.79,28893,4.31,72618.5,-19.69,-52.57,-52.87,0,*62
1483895031.06,28894,4.38,72640.3,-19.69,-52.43,-52.79,0,*61
1483895032.28,28895,4.31,72636.0,-19.71,-52.79,-52.87,0,*61
1483895033.51,28896,4.38,72650.5,-19.71,-52.65,-52.87,0,*6F
1483895034.77,28897,4.31,72646.8,-19.69,-52.57,-52.79,0,*67
1483895036.02,28898,4.31,72624.8,-19.71,-52.43,-52.65,0,*69
1483895037.26,28899,4.38,72632.0,-19.73,-52.65,-53.09,0,*65
1483895038.48,28900,4.31,72632.8,-19.71,-52.87,-53.09,0,*6A
1483895039.73,28901,4.38,72632.0,-19.71,-52.43,-52.79,0,*65
1483895040.98,28902,4.38,72644.5,-19.71,-52.43,-52.57,0,*6A
1483895042.2,28903,4.38,72676.3,-19.71,-52.79,-53.09,0,*68
1483895043.44,28904,4.38,72638.0,-19.71,-52.43,-52.79,0,*60
1483895044.67,28905,4.31,72646.3,-19.71,-52.57,-52.65,0,*69
1483895045.9,28906,4.31,72650.5,-19.71,-52.57,-52.79,0,*67
1483895047.17,28907,4.38,72650.5,-19.69,-52.43,-52.79,0,*6A
1483895048.42,28908,4.31,72656.8,-19.69,-52.79,-52.87,0,*6D
1483895049.67,28909,4.31,72652.3,-19.69,-52.65,-53.01,0,*6E
1483895050.9,28910,4.38,72672.3,-19.71,-52.65,-53.01,0,*6F
1483895052.11,28911,4.31,72664.5,-19.71,-52.79,-53.01,0,*63
1483895053.37,28912,4.31,72664.3,-19.71,-52.87,-53.23,0,*61
1483895054.64,28913,4.38,72662.8,-19.69,-52.87,-53.23,0,*69
1483895055.87,28914,4.38,72660.8,-19.71,-52.65,-52.87,0,*64
1483895057.09,28915,4.38,72666.8,-19.71,-52.79,-53.09,0,*6F
1483895058.32,28916,4.38,72668.3,-19.71,-53.01,-53.09,0,*62
1483895059.59,28917,4.38,72668.5,-19.71,-52.93,-53.31,0,*62
1483895060.88,28918,4.31,72666.8,-19.73,-52.93,-53.31,0,*6F
1483895062.1,28919,4.31,72660.8,-19.71,-53.01,-53.09,0,*6D
1483895063.36,28920,4.31,72660.0,-19.71,-52.87,-53.23,0,*60
1483895064.64,28921,4.31,72658.0,-19.69,-53.01,-53.23,0,*67
1483895065.93,28922,4.31,72664.5,-19.73,-52.93,-53.31,0,*66
1483895067.22,28923,4.38,72662.5,-19.73,-52.73,-53.15,0,*6F
1483895068.47,28924,4.31,72666.0,-19.71,-52.79,-53.23,0,*65
1483895069.73,28925,4.38,72672.5,-19.73,-52.73,-53.09,0,*64
1483895070.99,28926,4.31,72666.0,-19.73,-52.87,-53.31,0,*67
1483895072.25,28927,4.31,72664.0,-19.71,-52.87,-53.23,0,*67
1483895073.51,28928,4.38,72682.5,-19.71,-53.01,-53.23,0,*67
1483895074.77,28929,4.38,72686.5,-19.73,-52.87,-53.15,0,*6E
1483895076.03,28930,4.31,72678.3,-19.73,-52.73,-53.09,0,*60
1483895077.27,28931,4.31,72678.3,-19.73,-53.09,-53.39,0,*6E
1483895078.53,28932,4.31,72666.3,-19.73,-52.73,-53.09,0,*62
1483895079.75,28933,4.38,72674.5,-19.71,-52.79,-53.01,0,*63
1483895081.01,28934,4.31,72686.5,-19.77,-52.93,-53.01,0,*66
1483895082.28,28935,4.31,72682.3,-19.73,-52.73,-52.87,0,*62
1483895083.52,28936,4.38,72670.8,-19.73,-52.65,-53.09,0,*61
1483895084.78,28937,4.31,72674.8,-19.77,-52.79,-53.23,0,*61
1483895086.07,28938,4.31,72670.8,-19.77,-52.93,-53.15,0,*6F
1483895087.33,28939,4.38,72674.0,-19.77,-52.79,-53.15,0,*6A
1483895088.56,28940,4.31,72676.8,-19.77,-52.79,-53.01,0,*61
1483895089.79,28941,4.38,72666.5,-19.77,-52.79,-53.01,0,*60
1483895091.06,28942,4.31,72672.0,-19.77,-52.73,-53.01,0,*69
1483895092.32,28943,4.38,72674.8,-19.77,-52.79,-53.15,0,*67
1483895093.59,28944,4.38,72672.3,-19.77,-52.57,-52.73,0,*6D
1483895094.88,28945,4.31,72670.3,-19.77,-52.73,-52.93,0,*64
1483895096.14,28946,4.31,72670.5,-19.77,-52.79,-53.23,0,*67
1483895097.4,28947,4.31,72664.0,-19.77,-52.73,-53.01,0,*6C
1483895098.67,28948,4.31,72676.0,-19.73,-52.65,-52.73,0,*64
1483895099.9,28949,4.31,72676.3,-19.71,-52.57,-53.01,0,*62
1483895101.17,28950,4.38,72668.5,-19.73,-52.65,-52.93,0,*63
1483895102.43,28951,4.31,72670.0,-19.73,-52.65,-52.93,0,*62
1483895103.69,28952,4.31,72668.0,-19.73,-53.09,-53.31,0,*63
1483895104.96,28953,4.38,72666.5,-19.73,-53.09,-53.31,0,*62
1483895106.21,28954,4.38,72668.0,-19.71,-52.87,-53.31,0,*60
1483895107.5,28955,4.38,72668.8,-19.73,-52.93,-53.31,0,*66
1483895108.73,28956,4.31,72670.3,-19.73,-52.87,-53.09,0,*6B
1483895110.02,28957,4.31,72664.0,-19.73,-52.93,-53.31,0,*64
1483895111.31,28958,4.31,72660.8,-19.73,-52.93,-53.31,0,*6B
1483895112.6,28959,4.31,72662.0,-19.73,-53.15,-53.31,0,*65
1483895113.88,28960,4.31,72656.8,-19.77,-53.23,-53.45,0,*6D
1483895115.12,28961,4.38,72666.3,-19.77,-53.39,-53.69,0,*69
1483895116.39,28962,4.31,72664.3,-19.77,-53.23,-53.69,0,*61
1483895117.63,28963,4.31,72654.0,-19.77,-53.39,-53.69,0,*6B
1483895118.92,28964,4.38,72654.0,-19.77,-53.23,-53.45,0,*69
1483895120.19,28965,4.31,72654.8,-19.77,-53.23,-53.69,0,*66
1483895121.47,28966,4.31,72646.8,-19.77,-53.23,-53.45,0,*6B
1483895122.72,28967,4.31,72632.8,-19.79,-53.01,-53.23,0,*64
1483895123.98,28968,4.38,72626.0,-19.77,-53.15,-53.39,0,*6B
1483895125.22,28969,4.31,72628.3,-19.77,-53.39,-53.39,0,*64
1483895126.5,28970,4.31,72636.8,-19.77,-53.15,-53.45,0,*69
1483895127.76,28971,4.31,72624.3,-19.79,-53.15,-53.45,0,*66
1483895129.0,28972,4.31,72608.3,-19.79,-53.23,-53.69,0,*6E
1483895130.25,28973,4.38,72606.5,-19.79,-53.01,-53.23,0,*61
1483895131.45,28974,4.31,72598.3,-19.79,-52.79,-53.01,0,*68
1483895132.72,28975,4.31,72606.0,-19.79,-52.93,-53.23,0,*6D
1483895133.99,28976,4.31,72622.3,-19.79,-53.15,-53.23,0,*61
1483895135.25,28977,4.38,72616.8,-19.79,-53.15,-53.45,0,*60
1483895136.48,28978,4.31,72616.0,-19.79,-53.15,-53.39,0,*64
1483895137.73,28979,4.38,72630.3,-19.79,-53.23,-53.39,0,*60
1483895139.01,28980,4.31,72628.0,-19.81,-53.15,-53.45,0,*6F
1483895140.3,28981,4.31,72622.8,-19.81,-53.23,-53.45,0,*6B
1483895141.54,28982,4.31,72620.3,-19.77,-53.01,-53.39,0,*6A
1483895142.78,28983,4.31,72614.8,-19.79,-53.15,-53.39,0,*60
1483895144.02,28984,4.31,72596.8,-19.81,-53.01,-53.39,0,*65
1483895145.28,28985,4.31,72598.0,-19.79,-53.15,-53.45,0,*6D
1483895146.54,28986,4.31,72604.8,-19.79,-52.93,-53.23,0,*61
1483895147.79,28987,4.31,72622.0,-19.79,-53.01,-53.23,0,*6A
1483895149.01,28988,4.31,72608.8,-19.79,-53.01,-53.39,0,*6E
1483895150.25,28989,4.31,72592.8,-19.79,-53.01,-53.23,0,*64
1483895151.5,28990,4.31,72590.0,-19.81,-53.01,-53.39,0,*60
1483895152.79,28991,4.31,72596.8,-19.81,-53.15,-53.23,0,*6F
1483895154.04,28992,4.38,72616.3,-19.81,-52.79,-53.15,0,*62
1483895155.31,28993,4.31,72606.3,-19.79,-52.93,-53.15,0,*60
1483895156.55,28994,4.31,72596.0,-19.77,-53.01,-53.39,0,*6D
1483895157.81,28995,4.38,72620.5,-19.79,-53.23,-53.45,0,*69
1483895159.05,28996,4.31,72630.8,-19.79,-53.15,-53.39,0,*64
1483895160.3,28997,4.31,72634.5,-19.79,-53.01,-53.23,0,*6B
1483895161.56,28998,4.38,72628.0,-19.81,-53.15,-53.39,0,*6D
1483895162.79,28999,4.38,72638.3,-19.79,-53.39,-53.45,0,*6E
1483895164.05,29000,4.38,72638.3,-19.81,-53.39,-53.45,0,*61
1483895165.29,29001,4.38,72624.8,-19.81,-53.01,-53.39,0,*60
1483895166.56,29002,4.31,72620.0,-19.81,-53.01,-53.23,0,*68
1483895167.8,29003,4.31,72608.0,-19.81,-53.01,-53.39,0,*62
1483895169.06,29004,4.31,72622.8,-19.81,-53.15,-53.39,0,*60
1483895170.33,29005,4.31,72618.5,-19.81,-52.79,-53.23,0,*61
1483895171.58,29006,4.31,72620.3,-19.81,-52.79,-53.15,0,*67
1483895172.84,29007,4.31,72620.5,-19.81,-52.79,-53.15,0,*66
1483895174.08,29008,4.31,72618.8,-19.79,-52.73,-53.01,0,*61
1483895175.35,29009,4.31,72614.0,-19.79,-52.73,-52.93,0,*6A
1483895176.61,29010,4.31,72618.5,-19.79,-52.73,-53.15,0,*6D
1483895177.82,29011,4.31,72632.0,-19.79,-52.79,-53.01,0,*63
1483895179.06,29012,4.31,72628.3,-19.79,-52.79,-53.23,0,*60
1483895180.3,29013,4.31,72614.3,-19.79,-52.93,-53.39,0,*6E
1483895181.55,29014,4.31,72608.0,-19.79,-53.15,-53.45,0,*6D
1483895182.77,29015,4.31,72624.3,-19.79,-53.01,-53.39,0,*62
1483895184.04,29016,4.31,72618.0,-19.79,-52.93,-53.23,0,*60
1483895185.3,29017,4.38,72602.0,-19.77,-52.93,-53.39,0,*64
1483895186.51,29018,4.31,72600.0,-19.79,-52.79,-53.39,0,*61
1483895187.72,29019,4.38,72604.3,-19.79,-52.79,-53.39,0,*60
1483895188.96,29020,4.31,72610.8,-19.79,-53.15,-53.69,0,*64
1483895190.22,29021,4.38,72620.8,-19.79,-53.23,-53.45,0,*6E
1483895191.47,29022,4.38,72618.8,-19.79,-53.01,-53.23,0,*6D
1483895192.71,29023,4.31,72636.5,-19.79,-53.15,-53.39,0,*62
1483895193.92,29024,4.38,72640.8,-19.79,-53.01,-53.39,0,*60
1483895195.16,29025,4.31,72624.3,-19.79,-53.15,-53.39,0,*64
1483895196.4,29026,4.31,72608.5,-19.79,-53.15,-53.39,0,*67
1483895197.65,29027,4.31,72602.0,-19.79,-53.01,-53.23,0,*68
1483895198.88,29028,4.38,72614.8,-19.79,-53.15,-53.39,0,*69
1483895200.15,29029,4.31,72610.5,-19.79,-53.23,-53.45,0,*66
1483895201.36,29030,4.38,72610.8,-19.79,-53.39,-53.69,0,*6B
1483895202.62,29031,4.38,72610.5,-19.79,-53.23,-53.45,0,*6F
1483895203.86,29032,4.31,72606.8,-19.79,-53.15,-53.69,0,*67
1483895205.09,29033,4.31,72610.0,-19.79,-53.39,-53.45,0,*66
1483895206.31,29034,4.38,72612.5,-19.79,-53.01,-53.39,0,*61
1483895207.55,29035,4.38,72610.8,-19.79,-53.15,-53.39,0,*65
1483895208.81,29036,4.31,72600.5,-19.79,-53.15,-53.45,0,*6D
1483895210.02,29037,4.38,72626.0,-19.79,-53.01,-53.39,0,*62
1483895211.24,29038,4.31,72622.5,-19.79,-53.01,-53.39,0,*6D
1483895212.51,29039,4.31,72614.0,-19.79,-53.15,-53.23,0,*62
1483895213.8,29040,4.31,72622.3,-19.81,-52.93,-53.23,0,*64
1483895215.06,29041,4.31,72636.8,-19.79,-53.15,-53.45,0,*6D
1483895216.32,29042,4.38,72618.8,-19.79,-53.15,-53.45,0,*6E
1483895217.55,29043,4.38,72618.8,-19.79,-53.01,-53.45,0,*6A
1483895218.82,29044,4.31,72638.0,-19.83,-53.23,-53.53,0,*6F
1483895220.04,29045,4.31,72636.8,-19.79,-53.01,-53.39,0,*67
1483895221.28,29046,4.31,72630.0,-19.81,-53.01,-53.39,0,*63
1483895222.55,29047,4.38,72636.0,-19.81,-53.23,-53.69,0,*67
1483895223.81,29048,4.38,72626.5,-19.81,-53.23,-53.69,0,*68
1483895225.08,29049,4.31,72622.3,-19.81,-53.01,-53.45,0,*67
1483895226.36,29050,4.31,72616.5,-19.81,-53.15,-53.45,0,*6A
1483895227.59,29051,4.38,72594.8,-19.81,-53.39,-53.69,0,*6B
1483895228.86,29052,4.31,72590.0,-19.81,-53.01,-53.45,0,*6D
1483895230.13,29053,4.38,72580.3,-19.81,-53.23,-53.69,0,*62
1483895231.39,29054,4.31,72576.0,-19.81,-53.23,-53.69,0,*65
1483895232.69,29055,4.38,72604.5,-19.81,-52.93,-53.23,0,*60
1483895233.95,29056,4.38,72588.3,-19.81,-52.93,-53.39,0,*68
1483895235.22,29057,4.38,72612.3,-19.81,-53.23,-53.39,0,*63
1483895236.51,29058,4.38,72616.3,-19.81,-53.23,-53.45,0,*67
1483895237.76,29059,4.31,72570.0,-19.81,-53.39,-53.45,0,*6D
1483895239.04,29060,4.31,72572.3,-19.81,-53.31,-53.45,0,*6F
1483895240.3,29061,4.31,72584.0,-19.83,-53.31,-53.53,0,*6B
1483895241.58,29062,4.38,72580.5,-19.81,-53.15,-53.45,0,*6B
1483895242.86,29063,4.38,72574.0,-19.81,-53.15,-53.45,0,*6A
1483895244.13,29064,4.31,72550.8,-19.83,-53.23,-53.31,0,*69
1483895245.37,29065,4.31,72622.0,-19.83,-53.01,-53.31,0,*68
1483895246.66,29066,4.31,72600.0,-19.81,-52.93,-53.23,0,*60
1483895247.88,29067,4.31,72568.3,-19.83,-52.87,-53.09,0,*6E
1483895249.11,29068,4.38,72620.5,-19.83,-52.79,-53.31,0,*6B
1483895250.35,29069,4.38,72592.3,-19.83,-53.01,-53.23,0,*67
1483895251.62,29070,4.38,72594.0,-19.83,-53.23,-53.31,0,*6C
1483895252.91,29071,4.38,72626.5,-19.81,-52.93,-53.23,0,*66
1483895254.15,29072,4.38,72612.8,-19.83,-53.01,-53.31,0,*6E
1483895255.39,29073,4.38,72550.3,-19.83,-53.01,-53.31,0,*6F
1483895256.63,29074,4.31,72562.5,-19.83,-52.79,-53.23,0,*65
1483895257.87,29075,4.31,72544.5,-19.83,-53.01,-53.31,0,*69
1483895259.11,29076,4.31,72584.3,-19.81,-53.01,-53.39,0,*60
1483895260.37,29077,4.31,72574.5,-19.81,-53.01,-53.45,0,*6A
1483895261.61,29078,4.38,72572.8,-19.81,-53.01,-53.39,0,*6E
1483895262.9,29079,4.38,72574.5,-19.81,-52.93,-53.31,0,*6D
1483895264.16,29080,4.38,72568.8,-19.81,-52.79,-53.23,0,*6C
1483895265.43,29081,4.38,72586.5,-19.81,-52.57,-52.73,0,*65
1483895266.7,29082,4.38,72604.5,-19.81,-52.57,-52.93,0,*68
1483895267.97,29083,4.31,72586.5,-19.81,-52.57,-52.93,0,*69
1483895269.26,29084,4.38,72600.0,-19.81,-52.73,-52.93,0,*68
1483895270.52,29085,4.38,72610.3,-19.81,-52.79,-53.23,0,*69
1483895271.73,29086,4.38,72614.0,-19.83,-52.87,-53.09,0,*61
1483895273.0,29087,4.38,72620.8,-19.81,-52.73,-53.01,0,*61
1483895274.26,29088,4.38,72616.0,-19.81,-52.29,-52.65,0,*62
1483895275.55,29089,4.31,72612.5,-19.81,-52.73,-52.93,0,*65
1483895276.84,29090,4.38,72618.8,-19.81,-52.93,-53.15,0,*6C
1483895278.07,29091,4.38,72600.0,-19.81,-52.79,-53.01,0,*6C
1483895279.3,29092,4.38,72598.3,-19.81,-52.79,-53.01,0,*6F
1483895280.55,29093,4.38,72588.3,-19.79,-52.73,-53.01,0,*63
1483895281.81,29094,4.38,72592.0,-19.81,-52.73,-53.01,0,*63
1483895283.08,29095,4.31,72646.5,-19.81,-52.73,-53.01,0,*62
1483895284.36,29096,4.31,72620.8,-19.81,-52.93,-53.15,0,*6A
1483895285.63,29097,4.38,72602.0,-19.81,-52.73,-52.79,0,*6E
1483895286.87,29098,4.38,72646.8,-19.79,-52.73,-53.01,0,*68
1483895288.13,29099,4.38,72652.5,-19.81,-52.79,-53.15,0,*61
1483895289.39,29100,4.31,72622.5,-19.79,-52.73,-52.93,0,*62
1483895290.66,29101,4.31,72594.0,-19.79,-52.93,-53.15,0,*62
1483895291.95,29102,4.38,72626.5,-19.81,-52.93,-53.23,0,*63
1483895293.24,29103,4.31,72624.3,-19.81,-52.93,-53.15,0,*67
1483895294.53,29104,4.38,72626.0,-19.81,-52.93,-53.23,0,*65
1483895295.82,29105,4.31,72636.8,-19.81,-52.93,-53.15,0,*61
1483895297.08,29106,4.38,72630.8,-19.81,-52.79,-53.15,0,*66
1483895298.31,29107,4.38,72646.8,-19.81,-52.79,-53.01,0,*62
1483895299.54,29108,4.38,72626.5,-19.81,-52.79,-53.01,0,*6D
1483895300.8,29109,4.31,72634.0,-19.81,-52.73,-53.01,0,*66
1483895302.05,29110,4.31,72630.0,-19.81,-52.57,-52.79,0,*66
1483895303.3,29111,4.38,72628.8,-19.81,-52.79,-53.15,0,*60